DW2822 Weather Reports


time (UTC)temp
C
wind
direction
speed
KPH
gust
KPH
rain 1hr
cm
rain 24hr
cm
rain mn
cm
humidity
%
barometer
mb
20260508020103 10 117 0.0 4.8 0.00 0.00 0.00 69 1014.9
20260508014552 10 112 1.6 4.8 0.00 0.00 0.00 69 1014.9
20260508013042 10 95 1.6 4.8 0.00 0.00 0.00 69 1014.9
20260508011540 10 140 0.0 4.8 0.00 0.00 0.00 69 1015.1
20260508010027 10 162 3.2 6.4 0.00 0.00 0.00 69 1015.1
20260508004524 10 160 4.8 9.7 0.00 0.00 0.00 69 1015.1
20260508003058 10 161 1.6 6.4 0.00 0.00 0.00 70 1015.2
20260508001557 10 133 1.6 6.4 0.00 0.00 0.00 70 1015.2
20260508000028 10 168 3.2 6.4 0.00 0.00 0.00 70 1015.2
20260507234516 10 160 3.2 8.0 0.00 0.00 0.00 70 1015.3
20260507233010 11 159 3.2 6.4 0.00 0.00 0.00 70 1015.3
20260507231519 11 147 1.6 3.2 0.00 0.00 0.00 70 1015.3
20260507230050 11 103 1.6 4.8 0.00 0.00 0.00 70 1015.3
20260507224546 11 105 1.6 4.8 0.00 0.00 0.00 70 1015.4
20260507223036 11 106 3.2 4.8 0.00 0.00 0.00 70 1015.3
20260507221535 11 108 1.6 6.4 0.00 0.00 0.00 69 1015.4
20260507220018 11 162 1.6 4.8 0.00 0.00 0.00 69 1015.4
20260507214504 11 165 3.2 8.0 0.00 0.00 0.00 69 1015.4
20260507213102 11 162 4.8 8.0 0.00 0.00 0.00 69 1015.3
20260507211607 11 172 3.2 8.0 0.00 0.00 0.00 69 1015.2
20260507210038 11 150 0.0 0.0 0.00 0.00 0.00 69 1015.1
20260507204540 11 141 1.6 6.4 0.00 0.00 0.00 68 1015.0
20260507203034 11 156 4.8 9.7 0.00 0.00 0.00 68 1015.0
20260507201518 11 175 4.8 8.0 0.00 0.00 0.00 68 1014.9
20260507200056 11 169 4.8 8.0 0.00 0.00 0.00 69 1014.8
20260507194602 11 185 3.2 6.4 0.00 0.00 0.00 69 1014.6
20260507193056 11 160 3.2 8.0 0.00 0.00 0.00 69 1014.6
20260507191501 11 179 3.2 9.7 0.00 0.00 0.00 69 1014.6
20260507190040 11 165 3.2 11.3 0.00 0.00 0.00 69 1014.6
20260507184541 12 172 6.4 9.7 0.00 0.00 0.00 69 1014.5
20260507183043 12 160 3.2 8.0 0.00 0.00 0.00 69 1014.5
20260507181531 12 98 3.2 8.0 0.00 0.00 0.00 69 1014.4
20260507180103 12 151 8.0 16.1 0.00 0.00 0.00 68 1014.3
20260507174613 12 156 3.2 9.7 0.00 0.00 0.00 67 1014.3
20260507173054 12 155 1.6 6.4 0.00 0.00 0.00 67 1014.3
20260507171610 12 110 1.6 8.0 0.00 0.00 0.00 67 1014.4
20260507170030 12 110 3.2 6.4 0.00 0.00 0.00 68 1014.4
20260507164524 12 162 8.0 12.9 0.00 0.00 0.00 68 1014.5
20260507163009 12 158 6.4 14.5 0.00 0.00 0.00 69 1014.4
20260507161519 12 212 9.7 16.1 0.00 0.00 0.00 68 1014.5
20260507160049 12 161 9.7 16.1 0.00 0.00 0.00 68 1014.5
20260507154543 12 156 8.0 12.9 0.00 0.00 0.00 66 1014.5
20260507153035 12 198 6.4 12.9 0.00 0.00 0.00 66 1014.5
20260507151534 12 191 6.4 11.3 0.00 0.00 0.00 65 1014.5
20260507150005 12 146 3.2 11.3 0.00 0.00 0.00 65 1014.5
20260507144503 12 166 4.8 9.7 0.00 0.00 0.00 64 1014.6
20260507143054 12 148 4.8 8.0 0.00 0.00 0.00 64 1014.7
20260507141553 12 154 4.8 12.9 0.00 0.00 0.00 64 1014.7
20260507140033 12 169 3.2 11.3 0.00 0.00 0.00 65 1014.8
20260507134535 12 176 4.8 11.3 0.00 0.00 0.00 65 1014.8
20260507133021 12 177 6.4 11.3 0.00 0.00 0.00 65 1014.9
20260507131521 12 98 1.6 6.4 0.00 0.00 0.00 65 1014.9
20260507124556 13 112 4.8 14.5 0.00 0.00 0.00 66 1014.9
20260507123037 13 71 9.7 14.5 0.00 0.00 0.00 66 1014.9
20260507121537 13 110 6.4 14.5 0.00 0.00 0.00 66 1014.9
20260507120001 13 104 9.7 16.1 0.00 0.00 0.00 67 1015.1
20260507114505 13 56 11.3 19.3 0.00 0.00 0.00 69 1015.2
20260507113058 12 84 4.8 12.9 0.00 0.00 0.00 73 1015.2
20260507111555 12 78 8.0 16.1 0.00 0.00 0.00 74 1015.2
20260507110036 11 68 9.7 16.1 0.00 0.00 0.00 75 1015.4
20260507104531 11 59 6.4 16.1 0.00 0.00 0.00 77 1015.5
20260507103025 10 78 6.4 12.9 0.00 0.00 0.00 78 1015.5
20260507101523 10 103 4.8 11.3 0.00 0.00 0.00 80 1015.6
20260507100048 8 86 6.4 11.3 0.00 0.00 0.00 80 1015.6
20260507094547 8 73 4.8 11.3 0.00 0.00 0.00 79 1015.6
20260507093043 8 120 3.2 9.7 0.00 0.00 0.00 78 1015.7
20260507091543 7 115 3.2 9.7 0.00 0.00 0.00 78 1015.6
20260507090010 7 85 6.4 9.7 0.00 0.00 0.00 78 1015.6
20260507084510 7 71 4.8 9.7 0.00 0.00 0.00 77 1015.6
20260507083003 7 98 3.2 8.0 0.00 0.00 0.00 77 1015.7
20260507081503 7 84 4.8 8.0 0.00 0.00 0.00 77 1015.5
20260507080042 7 83 4.8 12.9 0.00 0.00 0.00 77 1015.5
20260507074601 7 60 3.2 8.0 0.00 0.00 0.00 77 1015.5
20260507073042 7 85 4.8 8.0 0.00 0.00 0.00 77 1015.5
20260507071536 7 73 4.8 8.0 0.00 0.00 0.00 78 1015.4
20260507070115 7 85 4.8 6.4 0.00 0.00 0.00 77 1015.3
20260507064610 7 65 3.2 6.4 0.00 0.00 0.00 77 1015.1
20260507063057 7 73 4.8 8.0 0.00 0.00 0.00 77 1015.1
20260507061549 7 73 3.2 6.4 0.00 0.00 0.00 77 1015.1
20260507060043 7 66 3.2 6.4 0.00 0.00 0.00 77 1015.1
20260507054528 7 82 3.2 6.4 0.00 0.00 0.00 76 1015.0
20260507053007 7 82 3.2 6.4 0.00 0.00 0.00 76 1014.9
20260507051505 7 81 3.2 6.4 0.00 0.00 0.00 76 1014.9
20260507050040 7 63 3.2 6.4 0.00 0.00 0.00 76 1014.9
20260507044542 7 62 3.2 6.4 0.00 0.00 0.00 76 1014.8
20260507043031 7 61 1.6 4.8 0.00 0.00 0.00 76 1014.8
20260507041533 7 76 3.2 6.4 0.00 0.00 0.00 76 1014.7
20260507040113 7 55 3.2 8.0 0.00 0.00 0.00 76 1014.7
20260507034616 7 39 6.4 8.0 0.00 0.00 0.00 76 1014.7
20260507033104 7 46 4.8 9.7 0.00 0.00 0.00 76 1014.8
20260507031618 7 48 6.4 11.3 0.00 0.00 0.00 76 1014.9
20260507030031 7 44 4.8 9.7 0.00 0.00 0.00 76 1014.8
20260507024527 7 35 4.8 11.3 0.00 0.00 0.00 75 1014.8
20260507023010 7 63 6.4 11.3 0.00 0.00 0.00 75 1014.8
20260507021510 7 57 6.4 9.7 0.00 0.00 0.00 75 1014.8